This is the latest recevied weather packets stored in our database for station/object PU5BHV. If no packets are shown the sender has not sent any weather packets the latest 10 day(s).
| Time | Temp. | Humidity | Pressure | Rain* | Wind** | Luminosity | Snow |
|---|---|---|---|---|---|---|---|
| 1778161015 | 25° C | 83% | 1013.8 hPa | 0 mm | - | 212 W/m² | - |
| 1778160712 | 25° C | 83% | 1014 hPa | 0 mm | - | 235 W/m² | - |
| 1778160409 | 25.56° C | 84% | 1013.9 hPa | 0 mm | - | 216 W/m² | - |
| 1778160105 | 25° C | 84% | 1013.9 hPa | 0 mm | - | 206 W/m² | - |
| 1778159803 | 25° C | 83% | 1014.1 hPa | 0 mm | - | 267 W/m² | - |
| 1778159500 | 25° C | 84% | 1013.9 hPa | 0 mm | - | 348 W/m² | - |
| 1778159196 | 25° C | 84% | 1013.9 hPa | 0 mm | - | 177 W/m² | - |
| 1778158894 | 25° C | 83% | 1014 hPa | 0 mm | - | 179 W/m² | - |
| 1778158593 | 25.56° C | 82% | 1013.9 hPa | 0 mm | - | 184 W/m² | - |
| 1778158290 | 25.56° C | 82% | 1014.1 hPa | 0 mm | - | 198 W/m² | - |
| 1778157986 | 25.56° C | 81% | 1014.4 hPa | 0 mm | - | 402 W/m² | - |
| 1778157684 | 25.56° C | 83% | 1014.5 hPa | 0 mm | - | 432 W/m² | - |
| 1778157382 | 26.11° C | 82% | 1014.2 hPa | 0 mm | - | 394 W/m² | - |
| 1778157079 | 25.56° C | 83% | 1014.2 hPa | 0 mm | - | 393 W/m² | - |
| 1778156774 | 25.56° C | 84% | 1014.1 hPa | 0 mm | - | 222 W/m² | - |
| 1778156470 | 25.56° C | 84% | 1014.3 hPa | 0 mm | - | 329 W/m² | - |
| 1778156166 | 25° C | 87% | 1014.3 hPa | 0 mm | - | 376 W/m² | - |
| 1778155862 | 24.44° C | 88% | 1014.4 hPa | 0 mm | - | 295 W/m² | - |
| 1778155558 | 23.89° C | 90% | 1014.3 hPa | 0 mm | - | 151 W/m² | - |
| 1778155255 | 23.89° C | 90% | 1014.3 hPa | 0 mm | - | 98 W/m² | - |
| 1778154951 | 23.89° C | 90% | 1014.5 hPa | 0 mm | - | 105 W/m² | - |
| 1778154648 | 23.89° C | 90% | 1014.6 hPa | 0 mm | - | 154 W/m² | - |
| 1778154343 | 23.89° C | 91% | 1014.3 hPa | 0 mm | - | 166 W/m² | - |
| 1778154041 | 23.89° C | 92% | 1014.2 hPa | 0 mm | - | 140 W/m² | - |
| 1778153738 | 23.33° C | 92% | 1014.7 hPa | 0 mm | - | 136 W/m² | - |
* Rain latest hour (hover to see other rain measurements)
** Current wind speed in m/s (hover to see current wind gust speed)